SHT21A EGLL-EGJB

Flight info

Callsign SHT21A
Flight time 0h 35m
Altitude 20000
Route GASGU2J GASGU N514 EVTES/N0378F190 N621 SAM/N0373F180 N63 LELNA LELNA1B
Aircraft A319/M-SDE3FGIJ1KRWXY/LB1

Departure

Time 2026-05-05 20:10
Airport London Heathrow Airport (EGLL)

Arrival

Time 2026-05-05 20:46
Airport Guernsey Airport (EGJB)
Time Latitude Longitude Altitude Speed Heading
2026-05-05 19:46 51.46929 -0.48717 87 ft 0 kts 360°
2026-05-05 20:03 51.46913 -0.48716 88 ft 4 kts 353°
2026-05-05 20:04 51.46888 -0.48705 85 ft 4 kts 321°
2026-05-05 20:04 51.46877 -0.48680 87 ft 1 kts 272°
2026-05-05 20:04 51.46877 -0.48679 87 ft 0 kts 271°
2026-05-05 20:07 51.46877 -0.48691 88 ft 3 kts 272°
2026-05-05 20:07 51.46864 -0.48744 88 ft 7 kts 217°
2026-05-05 20:08 51.46802 -0.48753 86 ft 11 kts 177°
2026-05-05 20:08 51.46718 -0.48750 85 ft 13 kts 179°
2026-05-05 20:08 51.46623 -0.48762 87 ft 15 kts 189°
2026-05-05 20:08 51.46513 -0.48776 89 ft 17 kts 155°
2026-05-05 20:09 51.46477 -0.48611 86 ft 18 kts 88°
2026-05-05 20:09 51.46475 -0.48304 90 ft 48 kts 91°
2026-05-05 20:09 51.46482 -0.47442 81 ft 105 kts 90°
2026-05-05 20:09 51.46488 -0.46006 83 ft 153 kts 90°
2026-05-05 20:10 51.46488 -0.44189 531 ft 161 kts 89°
2026-05-05 20:10 51.46494 -0.42363 1209 ft 166 kts 89°
2026-05-05 20:10 51.46227 -0.40462 1536 ft 193 kts 116°
2026-05-05 20:10 51.45438 -0.38535 1820 ft 222 kts 124°
2026-05-05 20:11 51.44445 -0.36409 2203 ft 251 kts 125°
2026-05-05 20:11 51.43321 -0.34132 2935 ft 268 kts 131°
2026-05-05 20:11 51.41714 -0.32661 4015 ft 273 kts 166°
2026-05-05 20:11 51.39816 -0.32676 5050 ft 277 kts 193°
2026-05-05 20:12 51.38052 -0.33895 6055 ft 279 kts 216°
2026-05-05 20:12 51.36584 -0.35932 7009 ft 281 kts 224°
2026-05-05 20:12 51.35135 -0.38049 7939 ft 284 kts 224°
2026-05-05 20:12 51.33662 -0.40184 8856 ft 288 kts 224°
2026-05-05 20:13 51.32167 -0.42356 9716 ft 293 kts 224°
2026-05-05 20:13 51.30811 -0.44799 10493 ft 296 kts 239°
2026-05-05 20:13 51.29956 -0.47738 11272 ft 297 kts 255°
2026-05-05 20:13 51.29362 -0.51017 11947 ft 305 kts 255°
2026-05-05 20:14 51.28764 -0.54355 12378 ft 324 kts 255°
2026-05-05 20:14 51.28130 -0.57878 12639 ft 343 kts 255°
2026-05-05 20:14 51.27437 -0.61574 13245 ft 351 kts 254°
2026-05-05 20:14 51.26709 -0.65319 13925 ft 356 kts 253°
2026-05-05 20:15 51.25959 -0.69111 14560 ft 360 kts 253°
2026-05-05 20:15 51.25200 -0.72937 15197 ft 363 kts 253°
2026-05-05 20:15 51.24439 -0.76792 15838 ft 366 kts 253°
2026-05-05 20:15 51.23675 -0.80684 16478 ft 370 kts 253°
2026-05-05 20:16 51.22901 -0.84618 17127 ft 373 kts 253°
2026-05-05 20:16 51.22124 -0.88577 17765 ft 377 kts 253°
2026-05-05 20:16 51.21334 -0.92580 18384 ft 380 kts 252°
2026-05-05 20:16 51.20254 -0.96450 18953 ft 384 kts 240°
2026-05-05 20:17 51.18743 -0.99964 19583 ft 386 kts 232°
2026-05-05 20:17 51.17089 -1.03333 19893 ft 386 kts 233°
2026-05-05 20:17 51.15442 -1.06707 19963 ft 386 kts 233°
2026-05-05 20:17 51.13796 -1.10087 19970 ft 386 kts 233°
2026-05-05 20:18 51.12153 -1.13456 19969 ft 386 kts 233°
2026-05-05 20:18 51.10503 -1.16833 19969 ft 386 kts 233°
2026-05-05 20:18 51.08805 -1.20127 19969 ft 386 kts 227°
2026-05-05 20:18 51.06789 -1.22957 19972 ft 387 kts 217°
2026-05-05 20:19 51.04539 -1.25317 19973 ft 388 kts 213°
2026-05-05 20:19 51.02269 -1.27628 19975 ft 388 kts 213°
2026-05-05 20:19 50.99992 -1.29942 19975 ft 388 kts 213°
2026-05-05 20:19 50.97726 -1.32246 19975 ft 388 kts 213°
2026-05-05 20:20 50.95441 -1.34528 19974 ft 388 kts 210°
2026-05-05 20:20 50.93041 -1.36489 19973 ft 388 kts 207°
2026-05-05 20:20 50.90628 -1.38420 19973 ft 388 kts 207°
2026-05-05 20:20 50.88218 -1.40349 19973 ft 388 kts 207°
2026-05-05 20:21 50.85809 -1.42276 19971 ft 388 kts 207°
2026-05-05 20:21 50.83393 -1.44203 19967 ft 388 kts 207°
2026-05-05 20:21 50.80981 -1.46122 19962 ft 389 kts 207°
2026-05-05 20:21 50.78565 -1.48043 19960 ft 389 kts 207°
2026-05-05 20:22 50.76144 -1.49962 19959 ft 389 kts 207°
2026-05-05 20:22 50.73727 -1.51876 19960 ft 389 kts 207°
2026-05-05 20:22 50.71303 -1.53789 19963 ft 389 kts 207°
2026-05-05 20:22 50.68877 -1.55702 19965 ft 389 kts 207°
2026-05-05 20:23 50.66454 -1.57617 19967 ft 390 kts 207°
2026-05-05 20:23 50.64033 -1.59534 19969 ft 390 kts 207°
2026-05-05 20:23 50.61639 -1.61429 19954 ft 390 kts 207°
2026-05-05 20:23 50.59177 -1.63370 19952 ft 391 kts 207°
2026-05-05 20:24 50.56779 -1.65255 19951 ft 391 kts 207°
2026-05-05 20:24 50.54337 -1.67172 19953 ft 392 kts 207°
2026-05-05 20:24 50.51901 -1.69082 19954 ft 392 kts 207°
2026-05-05 20:24 50.49462 -1.70990 19956 ft 392 kts 207°
2026-05-05 20:25 50.47021 -1.72897 19957 ft 392 kts 207°
2026-05-05 20:25 50.44581 -1.74806 19958 ft 392 kts 207°
2026-05-05 20:25 50.42137 -1.76719 19959 ft 392 kts 207°
2026-05-05 20:25 50.39695 -1.78628 19959 ft 392 kts 207°
2026-05-05 20:26 50.37257 -1.80534 19949 ft 392 kts 207°
2026-05-05 20:26 50.34813 -1.82442 19946 ft 393 kts 206°
2026-05-05 20:26 50.32362 -1.84348 19944 ft 393 kts 207°
2026-05-05 20:26 50.29915 -1.86246 19945 ft 393 kts 207°
2026-05-05 20:27 50.27459 -1.88148 19946 ft 393 kts 207°
2026-05-05 20:27 50.25010 -1.90044 19944 ft 394 kts 207°
2026-05-05 20:27 50.22555 -1.91943 19945 ft 394 kts 207°
2026-05-05 20:27 50.20103 -1.93836 19949 ft 393 kts 207°
2026-05-05 20:28 50.17646 -1.95733 19946 ft 394 kts 206°
2026-05-05 20:28 50.15222 -1.97603 19943 ft 394 kts 206°
2026-05-05 20:28 50.12764 -1.99499 19944 ft 394 kts 206°
2026-05-05 20:28 50.10309 -2.01392 19944 ft 394 kts 206°
2026-05-05 20:29 50.07848 -2.03286 19944 ft 395 kts 206°
2026-05-05 20:29 50.05387 -2.05177 19946 ft 395 kts 206°
2026-05-05 20:29 50.02922 -2.07068 19946 ft 395 kts 206°
2026-05-05 20:29 50.00458 -2.08953 19948 ft 395 kts 206°
2026-05-05 20:30 49.98015 -2.10889 19852 ft 394 kts 210°
2026-05-05 20:30 49.95692 -2.13171 19122 ft 398 kts 213°
2026-05-05 20:30 49.93375 -2.15527 18539 ft 397 kts 213°
2026-05-05 20:30 49.91076 -2.17885 17996 ft 394 kts 213°
2026-05-05 20:31 49.88809 -2.20212 17481 ft 389 kts 213°
2026-05-05 20:31 49.86569 -2.22508 16972 ft 383 kts 213°
2026-05-05 20:31 49.84361 -2.24759 16464 ft 378 kts 213°
2026-05-05 20:31 49.82172 -2.26975 15962 ft 373 kts 213°
2026-05-05 20:32 49.80012 -2.29151 15480 ft 368 kts 213°
2026-05-05 20:32 49.77877 -2.31302 14991 ft 365 kts 214°
2026-05-05 20:32 49.75761 -2.33431 14505 ft 361 kts 213°
2026-05-05 20:32 49.73660 -2.35547 14026 ft 358 kts 214°
2026-05-05 20:33 49.71581 -2.37644 13524 ft 356 kts 214°
2026-05-05 20:33 49.69506 -2.39596 13009 ft 353 kts 208°
2026-05-05 20:33 49.67340 -2.41348 12465 ft 351 kts 208°
2026-05-05 20:33 49.65179 -2.43087 11923 ft 349 kts 208°
2026-05-05 20:34 49.63031 -2.44819 11392 ft 348 kts 208°
2026-05-05 20:34 49.60894 -2.46540 10858 ft 346 kts 208°
2026-05-05 20:34 49.58766 -2.48253 10368 ft 344 kts 208°
2026-05-05 20:34 49.56682 -2.49929 10227 ft 330 kts 208°
2026-05-05 20:35 49.54689 -2.51534 10106 ft 318 kts 208°
2026-05-05 20:35 49.52761 -2.53092 9946 ft 308 kts 209°
2026-05-05 20:35 49.50851 -2.54567 9455 ft 310 kts 201°
2026-05-05 20:35 49.48747 -2.55068 9166 ft 305 kts 175°
2026-05-05 20:36 49.46729 -2.54268 8835 ft 298 kts 151°
2026-05-05 20:36 49.45125 -2.52370 8312 ft 289 kts 127°
2026-05-05 20:36 49.44167 -2.49725 7725 ft 281 kts 103°
2026-05-05 20:36 49.43931 -2.46805 7146 ft 274 kts 85°
2026-05-05 20:37 49.43991 -2.43889 6565 ft 272 kts 85°
2026-05-05 20:37 49.43941 -2.40990 5982 ft 272 kts 96°
2026-05-05 20:37 49.43365 -2.38223 5519 ft 275 kts 114°
2026-05-05 20:37 49.42272 -2.35797 5064 ft 280 kts 129°
2026-05-05 20:38 49.40923 -2.33597 4284 ft 294 kts 130°
2026-05-05 20:38 49.39503 -2.31309 3579 ft 294 kts 129°
2026-05-05 20:38 49.38502 -2.28781 3427 ft 264 kts 102°
2026-05-05 20:38 49.38454 -2.26167 3351 ft 233 kts 70°
2026-05-05 20:39 49.39208 -2.24155 3298 ft 208 kts 42°
2026-05-05 20:39 49.40384 -2.23052 3252 ft 192 kts 17°
2026-05-05 20:39 49.41672 -2.22858 3205 ft 186 kts 354°
2026-05-05 20:39 49.42887 -2.23497 3168 ft 186 kts 331°
2026-05-05 20:40 49.43827 -2.24859 3116 ft 190 kts 307°
2026-05-05 20:40 49.44318 -2.26759 3074 ft 196 kts 282°
2026-05-05 20:40 49.44318 -2.28870 3025 ft 197 kts 271°
2026-05-05 20:40 49.44263 -2.30878 3010 ft 180 kts 271°
2026-05-05 20:41 49.44216 -2.32724 2962 ft 166 kts 272°
2026-05-05 20:41 49.44173 -2.34440 2918 ft 157 kts 272°
2026-05-05 20:41 49.44131 -2.36094 2885 ft 154 kts 273°
2026-05-05 20:41 49.44091 -2.37725 2850 ft 153 kts 273°
2026-05-05 20:42 49.44049 -2.39357 2820 ft 153 kts 273°
2026-05-05 20:42 49.44007 -2.40993 2701 ft 153 kts 273°
2026-05-05 20:42 49.43965 -2.42619 2524 ft 151 kts 274°
2026-05-05 20:42 49.43923 -2.44193 2336 ft 143 kts 274°
2026-05-05 20:43 49.43884 -2.45697 2146 ft 139 kts 274°
2026-05-05 20:43 49.43846 -2.47159 1965 ft 138 kts 274°
2026-05-05 20:43 49.43808 -2.48623 1778 ft 136 kts 275°
2026-05-05 20:43 49.43769 -2.50072 1586 ft 135 kts 275°
2026-05-05 20:44 49.43731 -2.51529 1406 ft 136 kts 274°
2026-05-05 20:44 49.43690 -2.52962 1198 ft 133 kts 274°
2026-05-05 20:44 49.43657 -2.54376 990 ft 133 kts 274°
2026-05-05 20:44 49.43619 -2.55784 832 ft 130 kts 272°
2026-05-05 20:45 49.43543 -2.58514 477 ft 127 kts 270°
2026-05-05 20:45 49.43507 -2.59860 349 ft 122 kts 270°
2026-05-05 20:45 49.43476 -2.60905 323 ft 59 kts 267°
2026-05-05 20:46 49.43450 -2.61340 312 ft 21 kts 219°
2026-05-05 20:46 49.43367 -2.61253 315 ft 14 kts 118°
2026-05-05 20:46 49.43359 -2.61112 318 ft 13 kts 86°
2026-05-05 20:46 49.43364 -2.60972 322 ft 13 kts 89°
2026-05-05 20:47 49.43354 -2.60837 325 ft 13 kts 99°
2026-05-05 20:47 49.43348 -2.60783 326 ft 0 kts 100°
2026-05-05 20:49 49.43348 -2.60780 326 ft 2 kts 100°
2026-05-05 20:49 49.43342 -2.60737 327 ft 7 kts 100°
2026-05-05 20:49 49.43332 -2.60643 329 ft 11 kts 99°
2026-05-05 20:49 49.43327 -2.60498 331 ft 16 kts 87°
2026-05-05 20:50 49.43333 -2.60308 337 ft 19 kts 87°
2026-05-05 20:50 49.43337 -2.60167 340 ft 20 kts 88°
2026-05-05 20:50 49.43345 -2.59873 344 ft 23 kts 88°
2026-05-05 20:50 49.43363 -2.59668 345 ft 12 kts 85°
2026-05-05 20:51 49.43324 -2.59627 344 ft 9 kts 175°
2026-05-05 20:51 49.43263 -2.59622 344 ft 4 kts 177°
2026-05-05 20:51 49.43258 -2.59622 344 ft 0 kts 178°